Wetterdaten: Dienstag, 09.09.2014
Datum Zeit Temperatur Luftfeuchte Luftdruck Regen Wind Richtung Richtung Taupunkt Windchill Windben
09.09.2014 00:00 13,0 C 86 % 1020,8 hPa 0,0 l/m 0,0 km/h (0 Bft) NW 315 10,7 C 13,1 C 0,0 km/h (0 Bft)
09.09.2014 00:05 12,9 C 87 % 1020,8 hPa 0,0 l/m 0,0 km/h (0 Bft) W-NW 292 10,8 C 13,0 C 0,0 km/h (0 Bft)
09.09.2014 00:10 12,7 C 87 % 1020,8 hPa 0,0 l/m 0,0 km/h (0 Bft) NW 315 10,6 C 12,9 C 0,0 km/h (0 Bft)
09.09.2014 00:13 12,8 C 87 % 1020,5 hPa 0,0 l/m 0,0 km/h (0 Bft) NW 315 10,7 C 12,9 C 0,0 km/h (0 Bft)
09.09.2014 00:15 12,8 C 87 % 1020,5 hPa 0,0 l/m 0,0 km/h (0 Bft) NW 315 10,7 C 12,9 C 0,0 km/h (0 Bft)
09.09.2014 00:20 12,7 C 87 % 1020,5 hPa 0,0 l/m 0,0 km/h (0 Bft) NW 315 10,6 C 12,8 C 1,9 km/h (1 Bft)
09.09.2014 00:25 12,7 C 87 % 1020,5 hPa 0,0 l/m 0,2 km/h (0 Bft) O-SO 112 10,6 C 12,7 C 0,0 km/h (0 Bft)
09.09.2014 00:30 12,7 C 87 % 1020,5 hPa 0,0 l/m 0,2 km/h (0 Bft) NW 315 10,6 C 12,6 C 0,0 km/h (0 Bft)
09.09.2014 00:35 12,6 C 88 % 1020,6 hPa 0,0 l/m 0,0 km/h (0 Bft) N-NW 337 10,7 C 12,5 C 0,0 km/h (0 Bft)
09.09.2014 00:40 12,6 C 88 % 1020,6 hPa 0,0 l/m 0,0 km/h (0 Bft) N-NO 22 10,7 C 12,4 C 0,0 km/h (0 Bft)
09.09.2014 00:45 12,5 C 88 % 1020,6 hPa 0,0 l/m 0,0 km/h (0 Bft) N-NO 22 10,6 C 12,3 C 0,0 km/h (0 Bft)
09.09.2014 00:50 12,5 C 88 % 1020,6 hPa 0,0 l/m 0,0 km/h (0 Bft) N-NO 22 10,6 C 12,1 C 0,0 km/h (0 Bft)
09.09.2014 00:55 12,3 C 88 % 1020,7 hPa 0,0 l/m 0,0 km/h (0 Bft) O-NO 67 10,4 C 12,0 C 0,0 km/h (0 Bft)
09.09.2014 01:00 12,1 C 88 % 1020,7 hPa 0,0 l/m 0,0 km/h (0 Bft) NO 45 10,2 C 12,0 C 0,0 km/h (0 Bft)
09.09.2014 01:05 11,9 C 88 % 1020,7 hPa 0,0 l/m 0,0 km/h (0 Bft) N-NO 22 10,0 C 11,9 C 0,0 km/h (0 Bft)
09.09.2014 01:10 12,0 C 88 % 1020,7 hPa 0,0 l/m 0,0 km/h (0 Bft) O-SO 112 10,1 C 11,8 C 0,0 km/h (0 Bft)
09.09.2014 01:15 11,9 C 88 % 1020,4 hPa 0,0 l/m 0,0 km/h (0 Bft) S-SO 157 10,0 C 11,8 C 0,0 km/h (0 Bft)
09.09.2014 01:20 11,9 C 89 % 1020,4 hPa 0,0 l/m 0,0 km/h (0 Bft) SO 135 10,1 C 11,7 C 0,0 km/h (0 Bft)
09.09.2014 01:25 11,9 C 89 % 1020,4 hPa 0,0 l/m 0,0 km/h (0 Bft) S 180 10,1 C 11,9 C 0,0 km/h (0 Bft)
09.09.2014 01:30 12,1 C 89 % 1020,4 hPa 0,0 l/m 0,0 km/h (0 Bft) S-SO 157 10,3 C 12,0 C 0,0 km/h (0 Bft)
09.09.2014 01:35 12,3 C 89 % 1020,4 hPa 0,0 l/m 1,0 km/h (0 Bft) W-SW 247 10,5 C 12,3 C 3,7 km/h (1 Bft)
09.09.2014 01:40 12,3 C 89 % 1020,4 hPa 0,0 l/m 1,3 km/h (1 Bft) W 270 10,5 C 12,5 C 0,0 km/h (0 Bft)
09.09.2014 01:45 12,2 C 89 % 1020,4 hPa 0,0 l/m 0,6 km/h (0 Bft) W 270 10,4 C 12,5 C 0,0 km/h (0 Bft)
09.09.2014 01:50 12,3 C 89 % 1020,4 hPa 0,0 l/m 0,8 km/h (0 Bft) W 270 10,5 C 12,5 C 4,3 km/h (1 Bft)
09.09.2014 01:55 12,7 C 91 % 1020,6 hPa 0,0 l/m 2,3 km/h (1 Bft) W-SW 247 11,3 C 12,6 C 9,5 km/h (2 Bft)
09.09.2014 02:00 13,1 C 90 % 1020,6 hPa 0,0 l/m 2,6 km/h (1 Bft) SO 135 11,5 C 12,9 C 2,9 km/h (1 Bft)
09.09.2014 02:05 13,7 C 90 % 1020,6 hPa 0,0 l/m 2,9 km/h (1 Bft) SO 135 12,1 C 13,2 C 3,9 km/h (1 Bft)
09.09.2014 02:10 13,8 C 90 % 1020,6 hPa 0,0 l/m 3,7 km/h (1 Bft) O-SO 112 12,2 C 13,5 C 4,2 km/h (1 Bft)
09.09.2014 02:15 13,7 C 89 % 1020,4 hPa 0,0 l/m 3,2 km/h (1 Bft) W-NW 292 11,9 C 13,8 C 2,7 km/h (1 Bft)
09.09.2014 02:20 13,1 C 89 % 1020,4 hPa 0,0 l/m 2,3 km/h (1 Bft) NW 315 11,3 C 13,7 C 1,8 km/h (1 Bft)
09.09.2014 02:25 13,2 C 89 % 1020,4 hPa 0,0 l/m 1,4 km/h (1 Bft) W-SW 247 11,4 C 13,3 C 0,0 km/h (0 Bft)
09.09.2014 02:30 12,9 C 89 % 1020,4 hPa 0,0 l/m 0,8 km/h (0 Bft) S 180 11,1 C 13,0 C 0,0 km/h (0 Bft)
09.09.2014 02:35 12,6 C 88 % 1020,3 hPa 0,0 l/m 0,2 km/h (0 Bft) W-NW 292 10,7 C 12,7 C 0,0 km/h (0 Bft)
09.09.2014 02:40 12,3 C 88 % 1020,3 hPa 0,0 l/m 0,0 km/h (0 Bft) S-SO 157 10,4 C 12,5 C 0,0 km/h (0 Bft)
09.09.2014 02:45 11,9 C 88 % 1020,3 hPa 0,0 l/m 0,0 km/h (0 Bft) N-NO 22 10,0 C 12,0 C 0,0 km/h (0 Bft)
09.09.2014 02:50 11,9 C 88 % 1020,3 hPa 0,0 l/m 0,3 km/h (0 Bft) S-SO 157 10,0 C 11,9 C 0,0 km/h (0 Bft)
09.09.2014 02:55 11,8 C 89 % 1020,2 hPa 0,0 l/m 0,2 km/h (0 Bft) O-SO 112 10,0 C 11,7 C 0,0 km/h (0 Bft)
09.09.2014 03:00 11,7 C 89 % 1020,2 hPa 0,0 l/m 0,2 km/h (0 Bft) N-NW 337 9,9 C 11,8 C 0,0 km/h (0 Bft)
09.09.2014 03:05 11,9 C 89 % 1020,2 hPa 0,0 l/m 0,0 km/h (0 Bft) N-NO 22 10,1 C 11,9 C 0,0 km/h (0 Bft)
09.09.2014 03:10 12,3 C 89 % 1020,2 hPa 0,0 l/m 0,0 km/h (0 Bft) O-SO 112 10,5 C 12,0 C 0,0 km/h (0 Bft)
09.09.2014 03:13 12,2 C 89 % 1020,1 hPa 0,0 l/m 0,0 km/h (0 Bft) NO 45 10,4 C 12,0 C 0,0 km/h (0 Bft)
09.09.2014 03:15 12,2 C 89 % 1020,1 hPa 0,0 l/m 0,0 km/h (0 Bft) NO 45 10,4 C 12,0 C 0,0 km/h (0 Bft)
09.09.2014 03:20 12,1 C 89 % 1020,1 hPa 0,0 l/m 0,0 km/h (0 Bft) N-NO 22 10,3 C 12,0 C 0,0 km/h (0 Bft)
09.09.2014 03:25 12,2 C 90 % 1020,1 hPa 0,0 l/m 0,3 km/h (0 Bft) W 270 10,6 C 12,0 C 2,6 km/h (1 Bft)
09.09.2014 03:30 12,2 C 91 % 1020,1 hPa 0,0 l/m 0,8 km/h (0 Bft) NW 315 10,8 C 12,1 C 2,1 km/h (1 Bft)
09.09.2014 03:35 12,1 C 91 % 1019,8 hPa 0,0 l/m 0,6 km/h (0 Bft) NW 315 10,7 C 12,1 C 0,0 km/h (0 Bft)
09.09.2014 03:40 12,1 C 91 % 1019,8 hPa 0,0 l/m 0,6 km/h (0 Bft) N-NO 22 10,7 C 12,3 C 2,6 km/h (1 Bft)
09.09.2014 03:45 12,1 C 91 % 1019,8 hPa 0,0 l/m 0,3 km/h (0 Bft) W 270 10,7 C 12,2 C 0,0 km/h (0 Bft)
09.09.2014 03:50 12,2 C 91 % 1019,8 hPa 0,0 l/m 0,3 km/h (0 Bft) NO 45 10,8 C 12,2 C 0,0 km/h (0 Bft)
09.09.2014 03:55 12,1 C 91 % 1019,8 hPa 0,0 l/m 0,3 km/h (0 Bft) NW 315 10,7 C 12,2 C 2,6 km/h (1 Bft)
09.09.2014 04:00 12,0 C 91 % 1019,8 hPa 0,0 l/m 0,6 km/h (0 Bft) W-NW 292 10,6 C 12,3 C 1,8 km/h (1 Bft)
09.09.2014 04:05 12,1 C 91 % 1019,8 hPa 0,0 l/m 0,6 km/h (0 Bft) W 270 10,7 C 12,3 C 0,0 km/h (0 Bft)
09.09.2014 04:10 12,1 C 91 % 1019,8 hPa 0,0 l/m 0,2 km/h (0 Bft) SO 135 10,7 C 12,3 C 0,0 km/h (0 Bft)
09.09.2014 04:15 12,0 C 91 % 1019,7 hPa 0,0 l/m 0,2 km/h (0 Bft) NW 315 10,6 C 12,2 C 0,0 km/h (0 Bft)
09.09.2014 04:20 12,1 C 91 % 1019,7 hPa 0,0 l/m 0,3 km/h (0 Bft) NW 315 10,7 C 12,2 C 2,7 km/h (1 Bft)
09.09.2014 04:25 12,2 C 91 % 1019,7 hPa 0,0 l/m 0,3 km/h (0 Bft) SW 225 10,8 C 12,4 C 0,0 km/h (0 Bft)
09.09.2014 04:30 12,2 C 91 % 1019,7 hPa 0,0 l/m 0,2 km/h (0 Bft) W 270 10,8 C 12,4 C 0,0 km/h (0 Bft)
09.09.2014 04:35 12,4 C 91 % 1019,8 hPa 0,0 l/m 0,3 km/h (0 Bft) SW 225 11,0 C 12,6 C 0,0 km/h (0 Bft)
09.09.2014 04:40 12,3 C 91 % 1019,8 hPa 0,0 l/m 0,3 km/h (0 Bft) NW 315 10,9 C 12,6 C 0,0 km/h (0 Bft)
09.09.2014 04:45 12,4 C 91 % 1019,8 hPa 0,0 l/m 0,2 km/h (0 Bft) S 180 11,0 C 12,6 C 0,0 km/h (0 Bft)
09.09.2014 04:50 12,3 C 91 % 1019,8 hPa 0,0 l/m 0,2 km/h (0 Bft) SO 135 10,9 C 12,5 C 1,9 km/h (1 Bft)
09.09.2014 04:55 12,4 C 91 % 1019,9 hPa 0,0 l/m 0,2 km/h (0 Bft) S-SO 157 11,0 C 12,4 C 0,0 km/h (0 Bft)
09.09.2014 05:00 12,3 C 91 % 1019,9 hPa 0,0 l/m 0,2 km/h (0 Bft) W-NW 292 10,9 C 12,4 C 0,0 km/h (0 Bft)
09.09.2014 05:05 12,5 C 91 % 1019,9 hPa 0,0 l/m 0,2 km/h (0 Bft) W-SW 247 11,1 C 12,5 C 0,0 km/h (0 Bft)
09.09.2014 05:10 12,5 C 91 % 1019,9 hPa 0,0 l/m 0,5 km/h (0 Bft) S-SO 157 11,1 C 12,6 C 0,0 km/h (0 Bft)
09.09.2014 05:15 12,4 C 91 % 1019,9 hPa 0,0 l/m 0,5 km/h (0 Bft) S 180 11,0 C 12,6 C 1,6 km/h (1 Bft)
09.09.2014 05:20 12,7 C 91 % 1019,9 hPa 0,0 l/m 0,8 km/h (0 Bft) SW 225 11,3 C 12,6 C 0,0 km/h (0 Bft)
09.09.2014 05:25 12,8 C 91 % 1019,9 hPa 0,0 l/m 0,6 km/h (0 Bft) S-SO 157 11,4 C 12,7 C 0,0 km/h (0 Bft)
09.09.2014 05:30 12,8 C 91 % 1019,9 hPa 0,0 l/m 0,2 km/h (0 Bft) W-NW 292 11,4 C 12,8 C 0,0 km/h (0 Bft)
09.09.2014 05:35 12,9 C 91 % 1019,9 hPa 0,0 l/m 0,5 km/h (0 Bft) N-NW 337 11,5 C 13,0 C 0,0 km/h (0 Bft)
09.09.2014 05:40 12,9 C 91 % 1019,9 hPa 0,0 l/m 0,5 km/h (0 Bft) W-SW 247 11,5 C 13,0 C 0,0 km/h (0 Bft)
09.09.2014 05:45 12,9 C 91 % 1019,9 hPa 0,0 l/m 0,2 km/h (0 Bft) N-NW 337 11,5 C 12,9 C 2,1 km/h (1 Bft)
09.09.2014 05:50 12,8 C 91 % 1019,9 hPa 0,0 l/m 0,2 km/h (0 Bft) W 270 11,4 C 12,9 C 0,0 km/h (0 Bft)
09.09.2014 05:55 12,9 C 91 % 1019,8 hPa 0,0 l/m 0,2 km/h (0 Bft) S 180 11,5 C 12,9 C 0,0 km/h (0 Bft)
09.09.2014 06:00 12,8 C 91 % 1019,8 hPa 0,0 l/m 0,3 km/h (0 Bft) NW 315 11,4 C 12,8 C 1,8 km/h (1 Bft)
09.09.2014 06:05 12,7 C 90 % 1019,8 hPa 0,0 l/m 0,6 km/h (0 Bft) NW 315 11,1 C 12,8 C 2,1 km/h (1 Bft)
09.09.2014 06:10 12,7 C 90 % 1019,8 hPa 0,0 l/m 0,6 km/h (0 Bft) NW 315 11,1 C 12,8 C 0,0 km/h (0 Bft)
09.09.2014 06:13 12,8 C 91 % 1019,9 hPa 0,0 l/m 0,3 km/h (0 Bft) O-NO 67 11,4 C 12,8 C 2,1 km/h (1 Bft)
09.09.2014 06:15 12,8 C 91 % 1019,9 hPa 0,0 l/m 0,3 km/h (0 Bft) O-NO 67 11,4 C 12,8 C 2,1 km/h (1 Bft)
09.09.2014 06:20 13,1 C 89 % 1019,9 hPa 0,0 l/m 0,6 km/h (0 Bft) S-SO 157 11,3 C 12,8 C 1,6 km/h (1 Bft)
09.09.2014 06:25 13,3 C 89 % 1019,9 hPa 0,0 l/m 0,8 km/h (0 Bft) S-SO 157 11,5 C 13,1 C 0,0 km/h (0 Bft)
09.09.2014 06:30 13,3 C 89 % 1019,9 hPa 0,0 l/m 0,6 km/h (0 Bft) S 180 11,5 C 13,2 C 1,8 km/h (1 Bft)
09.09.2014 06:35 13,3 C 89 % 1020,0 hPa 0,0 l/m 0,6 km/h (0 Bft) O-NO 67 11,5 C 13,2 C 0,0 km/h (0 Bft)
09.09.2014 06:40 13,3 C 89 % 1020,0 hPa 0,0 l/m 0,8 km/h (0 Bft) SO 135 11,5 C 13,1 C 2,4 km/h (1 Bft)
09.09.2014 06:45 13,3 C 89 % 1020,0 hPa 0,0 l/m 0,5 km/h (0 Bft) O-SO 112 11,5 C 13,0 C 2,4 km/h (1 Bft)
09.09.2014 06:50 13,2 C 90 % 1020,0 hPa 0,0 l/m 1,0 km/h (0 Bft) NO 45 11,6 C 12,9 C 0,0 km/h (0 Bft)
09.09.2014 06:55 13,2 C 91 % 1019,8 hPa 0,0 l/m 1,6 km/h (1 Bft) W-SW 247 11,8 C 12,9 C 3,9 km/h (1 Bft)
09.09.2014 07:00 13,2 C 91 % 1019,8 hPa 0,0 l/m 2,1 km/h (1 Bft) S 180 11,8 C 13,0 C 2,9 km/h (1 Bft)
09.09.2014 07:05 13,3 C 92 % 1019,8 hPa 0,0 l/m 2,4 km/h (1 Bft) S 180 12,0 C 13,1 C 2,3 km/h (1 Bft)
09.09.2014 07:10 13,4 C 92 % 1019,8 hPa 0,0 l/m 1,8 km/h (1 Bft) S-SO 157 12,1 C 13,2 C 0,0 km/h (0 Bft)
09.09.2014 07:15 13,4 C 92 % 1020,0 hPa 0,0 l/m 1,8 km/h (1 Bft) S-SO 157 12,1 C 13,2 C 1,9 km/h (1 Bft)
09.09.2014 07:20 13,3 C 92 % 1020,0 hPa 0,0 l/m 1,0 km/h (0 Bft) S 180 12,0 C 13,2 C 0,0 km/h (0 Bft)
09.09.2014 07:25 13,3 C 93 % 1020,0 hPa 0,0 l/m 0,2 km/h (0 Bft) S 180 12,2 C 13,2 C 0,0 km/h (0 Bft)
09.09.2014 07:30 13,3 C 93 % 1020,0 hPa 0,0 l/m 0,0 km/h (0 Bft) N-NW 337 12,2 C 13,2 C 0,0 km/h (0 Bft)
09.09.2014 07:35 13,3 C 93 % 1020,0 hPa 0,0 l/m 0,0 km/h (0 Bft) SO 135 12,2 C 13,2 C 0,0 km/h (0 Bft)
09.09.2014 07:40 13,3 C 93 % 1020,0 hPa 0,0 l/m 0,0 km/h (0 Bft) O-NO 67 12,2 C 13,2 C 0,0 km/h (0 Bft)
09.09.2014 07:45 13,4 C 93 % 1020,0 hPa 0,0 l/m 0,2 km/h (0 Bft) O-NO 67 12,3 C 13,3 C 1,9 km/h (1 Bft)
09.09.2014 07:50 13,4 C 93 % 1020,0 hPa 0,0 l/m 0,6 km/h (0 Bft) W-SW 247 12,3 C 13,3 C 3,7 km/h (1 Bft)
09.09.2014 07:55 13,4 C 93 % 1020,1 hPa 0,0 l/m 1,1 km/h (1 Bft) S 180 12,3 C 13,3 C 0,0 km/h (0 Bft)
09.09.2014 08:00 13,5 C 93 % 1020,1 hPa 0,0 l/m 0,8 km/h (0 Bft) NW 315 12,4 C 13,3 C 0,0 km/h (0 Bft)
09.09.2014 08:05 13,7 C 93 % 1020,1 hPa 0,0 l/m 1,0 km/h (0 Bft) SO 135 12,6 C 13,4 C 1,8 km/h (1 Bft)
09.09.2014 08:10 13,9 C 93 % 1020,1 hPa 0,0 l/m 1,1 km/h (1 Bft) W 270 12,8 C 13,7 C 0,0 km/h (0 Bft)
09.09.2014 08:15 14,2 C 93 % 1020,3 hPa 0,0 l/m 1,3 km/h (1 Bft) S 180 13,1 C 13,9 C 0,0 km/h (0 Bft)
09.09.2014 08:20 14,2 C 94 % 1020,3 hPa 0,0 l/m 1,4 km/h (1 Bft) SO 135 13,2 C 14,1 C 3,5 km/h (1 Bft)
09.09.2014 08:25 14,7 C 94 % 1020,3 hPa 0,0 l/m 1,3 km/h (1 Bft) N-NW 337 13,7 C 14,4 C 0,0 km/h (0 Bft)
09.09.2014 08:30 15,1 C 93 % 1020,3 hPa 0,0 l/m 1,0 km/h (0 Bft) N-NO 22 14,0 C 14,7 C 2,4 km/h (1 Bft)
09.09.2014 08:35 15,4 C 93 % 1020,2 hPa 0,0 l/m 0,3 km/h (0 Bft) N-NO 22 14,3 C 15,2 C 0,0 km/h (0 Bft)
09.09.2014 08:40 15,4 C 93 % 1020,2 hPa 0,0 l/m 0,8 km/h (0 Bft) NW 315 14,3 C 15,3 C 0,0 km/h (0 Bft)
09.09.2014 08:45 15,1 C 93 % 1020,2 hPa 0,0 l/m 0,5 km/h (0 Bft) N-NO 22 14,0 C 15,2 C 0,0 km/h (0 Bft)
09.09.2014 08:50 14,9 C 94 % 1020,2 hPa 0,0 l/m 0,2 km/h (0 Bft) S-SO 157 13,9 C 15,1 C 0,0 km/h (0 Bft)
09.09.2014 08:55 14,9 C 94 % 1020,6 hPa 0,0 l/m 0,2 km/h (0 Bft) O-SO 112 13,9 C 14,9 C 0,0 km/h (0 Bft)
09.09.2014 09:00 15,0 C 93 % 1020,6 hPa 0,0 l/m 0,2 km/h (0 Bft) NW 315 13,9 C 14,9 C 0,0 km/h (0 Bft)
09.09.2014 09:05 15,0 C 93 % 1020,6 hPa 0,0 l/m 1,0 km/h (0 Bft) W 270 13,9 C 14,9 C 1,9 km/h (1 Bft)
09.09.2014 09:08 15,0 C 93 % 1020,6 hPa 0,0 l/m 1,3 km/h (1 Bft) S-SO 157 13,9 C 14,9 C 0,0 km/h (0 Bft)
09.09.2014 09:10 15,0 C 93 % 1020,6 hPa 0,0 l/m 1,3 km/h (1 Bft) S-SO 157 13,9 C 14,9 C 0,0 km/h (0 Bft)
09.09.2014 09:15 14,9 C 94 % 1020,7 hPa 0,0 l/m 0,6 km/h (0 Bft) S 180 13,9 C 15,0 C 0,0 km/h (0 Bft)
09.09.2014 09:20 14,9 C 94 % 1020,7 hPa 0,0 l/m 0,2 km/h (0 Bft) SW 225 13,9 C 15,0 C 2,4 km/h (1 Bft)
09.09.2014 09:25 14,8 C 93 % 1020,7 hPa 0,0 l/m 0,3 km/h (0 Bft) S-SO 157 13,7 C 15,0 C 0,0 km/h (0 Bft)
09.09.2014 09:30 15,2 C 93 % 1020,7 hPa 0,0 l/m 0,3 km/h (0 Bft) SO 135 14,1 C 15,0 C 0,0 km/h (0 Bft)
09.09.2014 09:35 15,9 C 93 % 1020,6 hPa 0,0 l/m 0,2 km/h (0 Bft) O 90 14,8 C 15,7 C 0,0 km/h (0 Bft)
09.09.2014 09:40 16,5 C 92 % 1020,6 hPa 0,0 l/m 0,3 km/h (0 Bft) O-NO 67 15,2 C 16,5 C 0,0 km/h (0 Bft)
09.09.2014 09:45 16,8 C 92 % 1020,6 hPa 0,0 l/m 0,2 km/h (0 Bft) N-NW 337 15,5 C 17,3 C 0,0 km/h (0 Bft)
09.09.2014 09:50 16,9 C 92 % 1020,6 hPa 0,0 l/m 0,2 km/h (0 Bft) W 270 15,6 C 17,5 C 2,1 km/h (1 Bft)
09.09.2014 09:55 17,1 C 91 % 1020,9 hPa 0,0 l/m 1,1 km/h (1 Bft) W 270 15,6 C 17,6 C 0,0 km/h (0 Bft)
09.09.2014 10:00 17,1 C 91 % 1020,9 hPa 0,0 l/m 1,1 km/h (1 Bft) O-SO 112 15,6 C 17,8 C 0,0 km/h (0 Bft)
09.09.2014 10:05 17,7 C 91 % 1020,9 hPa 0,0 l/m 0,2 km/h (0 Bft) W-SW 247 16,2 C 18,1 C 0,0 km/h (0 Bft)
09.09.2014 10:10 18,1 C 91 % 1020,9 hPa 0,0 l/m 0,5 km/h (0 Bft) O-SO 112 16,6 C 18,5 C 1,6 km/h (1 Bft)
09.09.2014 10:15 20,8 C 86 % 1021,1 hPa 0,0 l/m 0,6 km/h (0 Bft) NW 315 18,4 C 21,1 C 0,0 km/h (0 Bft)
09.09.2014 10:20 19,7 C 85 % 1021,1 hPa 0,0 l/m 0,5 km/h (0 Bft) S-SO 157 17,1 C 22,8 C 0,0 km/h (0 Bft)
09.09.2014 10:25 20,7 C 84 % 1021,1 hPa 0,0 l/m 0,3 km/h (0 Bft) S-SO 157 17,9 C 22,1 C 0,0 km/h (0 Bft)
09.09.2014 10:30 21,2 C 77 % 1021,1 hPa 0,0 l/m 0,6 km/h (0 Bft) N-NW 337 17,0 C 23,3 C 0,0 km/h (0 Bft)
09.09.2014 10:35 22,2 C 79 % 1021,2 hPa 0,0 l/m 0,5 km/h (0 Bft) N-NO 22 18,4 C 24,1 C 0,0 km/h (0 Bft)
09.09.2014 10:40 21,6 C 81 % 1021,2 hPa 0,0 l/m 0,3 km/h (0 Bft) S-SO 157 18,2 C 25,1 C 4,3 km/h (1 Bft)
09.09.2014 10:45 20,5 C 75 % 1021,2 hPa 0,0 l/m 1,1 km/h (1 Bft) SW 225 15,9 C 24,5 C 1,8 km/h (1 Bft)
09.09.2014 10:50 20,6 C 80 % 1021,2 hPa 0,0 l/m 1,0 km/h (0 Bft) NW 315 17,0 C 24,1 C 0,0 km/h (0 Bft)
09.09.2014 10:55 20,0 C 82 % 1021,2 hPa 0,0 l/m 0,3 km/h (0 Bft) W-SW 247 16,8 C 23,6 C 4,3 km/h (1 Bft)
09.09.2014 11:00 20,2 C 82 % 1021,2 hPa 0,0 l/m 0,8 km/h (0 Bft) W-SW 247 17,0 C 23,1 C 0,0 km/h (0 Bft)
09.09.2014 11:05 21,2 C 78 % 1021,2 hPa 0,0 l/m 0,8 km/h (0 Bft) NW 315 17,2 C 23,4 C 1,6 km/h (1 Bft)
09.09.2014 11:10 20,4 C 79 % 1021,2 hPa 0,0 l/m 1,8 km/h (1 Bft) SW 225 16,6 C 23,6 C 4,8 km/h (1 Bft)
09.09.2014 11:15 19,8 C 81 % 1021,4 hPa 0,0 l/m 3,2 km/h (1 Bft) S-SO 157 16,4 C 22,7 C 3,1 km/h (1 Bft)
09.09.2014 11:20 20,0 C 82 % 1021,4 hPa 0,0 l/m 2,6 km/h (1 Bft) S 180 16,8 C 22,3 C 0,0 km/h (0 Bft)
09.09.2014 11:25 20,9 C 76 % 1021,4 hPa 0,0 l/m 1,1 km/h (1 Bft) W-SW 247 16,5 C 23,4 C 0,0 km/h (0 Bft)
09.09.2014 11:30 20,2 C 81 % 1021,4 hPa 0,0 l/m 1,1 km/h (1 Bft) W 270 16,8 C 23,0 C 3,4 km/h (1 Bft)
09.09.2014 11:35 19,6 C 84 % 1021,4 hPa 0,0 l/m 1,1 km/h (1 Bft) W-SW 247 16,8 C 21,9 C 0,0 km/h (0 Bft)
09.09.2014 11:40 19,1 C 83 % 1021,4 hPa 0,0 l/m 1,0 km/h (0 Bft) NW 315 16,1 C 21,2 C 4,0 km/h (1 Bft)
09.09.2014 11:45 18,8 C 85 % 1021,4 hPa 0,0 l/m 0,6 km/h (0 Bft) W 270 16,2 C 20,3 C 0,0 km/h (0 Bft)
09.09.2014 11:50 18,8 C 86 % 1021,4 hPa 0,0 l/m 0,6 km/h (0 Bft) W-SW 247 16,4 C 20,0 C 2,4 km/h (1 Bft)
09.09.2014 11:55 18,9 C 86 % 1021,4 hPa 0,0 l/m 0,3 km/h (0 Bft) S-SO 157 16,5 C 19,9 C 0,0 km/h (0 Bft)
09.09.2014 12:00 19,3 C 86 % 1021,4 hPa 0,0 l/m 0,2 km/h (0 Bft) S-SW 202 16,9 C 20,2 C 1,6 km/h (1 Bft)
09.09.2014 12:05 20,5 C 86 % 1021,4 hPa 0,0 l/m 0,2 km/h (0 Bft) W-SW 247 18,1 C 21,3 C 0,0 km/h (0 Bft)
09.09.2014 12:08 20,1 C 84 % 1021,4 hPa 0,0 l/m 0,2 km/h (0 Bft) W-SW 247 17,3 C 21,6 C 0,0 km/h (0 Bft)
09.09.2014 12:10 20,1 C 84 % 1021,4 hPa 0,0 l/m 0,2 km/h (0 Bft) W-SW 247 17,3 C 21,6 C 0,0 km/h (0 Bft)
09.09.2014 12:15 20,5 C 83 % 1021,3 hPa 0,0 l/m 0,2 km/h (0 Bft) W 270 17,5 C 21,9 C 0,0 km/h (0 Bft)
09.09.2014 12:20 20,2 C 82 % 1021,3 hPa 0,0 l/m 0,5 km/h (0 Bft) W 270 17,0 C 22,1 C 2,7 km/h (1 Bft)
09.09.2014 12:25 23,6 C 80 % 1021,3 hPa 0,0 l/m 0,6 km/h (0 Bft) W-SW 247 19,9 C 23,1 C 4,3 km/h (1 Bft)
09.09.2014 12:30 24,2 C 72 % 1021,3 hPa 0,0 l/m 1,4 km/h (1 Bft) W-SW 247 18,8 C 25,4 C 2,6 km/h (1 Bft)
09.09.2014 12:35 24,7 C 63 % 1021,3 hPa 0,0 l/m 1,3 km/h (1 Bft) SO 135 17,2 C 27,2 C 0,0 km/h (0 Bft)
09.09.2014 12:40 24,1 C 68 % 1021,3 hPa 0,0 l/m 1,1 km/h (1 Bft) S-SO 157 17,8 C 27,5 C 2,6 km/h (1 Bft)
09.09.2014 12:45 23,6 C 68 % 1021,3 hPa 0,0 l/m 1,6 km/h (1 Bft) NO 45 17,3 C 26,7 C 2,4 km/h (1 Bft)
09.09.2014 12:50 22,5 C 69 % 1021,3 hPa 0,0 l/m 1,1 km/h (1 Bft) SW 225 16,5 C 26,2 C 0,0 km/h (0 Bft)
09.09.2014 12:55 23,5 C 67 % 1021,4 hPa 0,0 l/m 0,8 km/h (0 Bft) SW 225 17,0 C 25,6 C 1,6 km/h (1 Bft)
09.09.2014 13:00 25,0 C 66 % 1021,4 hPa 0,0 l/m 1,0 km/h (0 Bft) SW 225 18,2 C 26,7 C 1,9 km/h (1 Bft)
09.09.2014 13:05 25,6 C 55 % 1021,4 hPa 0,0 l/m 1,0 km/h (0 Bft) W 270 15,9 C 28,0 C 0,0 km/h (0 Bft)
09.09.2014 13:10 25,2 C 55 % 1021,4 hPa 0,0 l/m 1,4 km/h (1 Bft) SO 135 15,5 C 27,9 C 2,7 km/h (1 Bft)
09.09.2014 13:15 25,8 C 49 % 1021,4 hPa 0,0 l/m 2,6 km/h (1 Bft) W 270 14,3 C 27,0 C 2,9 km/h (1 Bft)
09.09.2014 13:20 26,1 C 50 % 1021,4 hPa 0,0 l/m 1,9 km/h (1 Bft) NW 315 14,8 C 26,6 C 0,0 km/h (0 Bft)
09.09.2014 13:25 26,1 C 50 % 1021,4 hPa 0,0 l/m 1,9 km/h (1 Bft) NW 315 14,8 C 26,6 C 0,0 km/h (0 Bft)
09.09.2014 13:30 25,6 C 49 % 1021,4 hPa 0,0 l/m 3,1 km/h (1 Bft) W-SW 247 14,1 C 26,7 C 4,7 km/h (1 Bft)
09.09.2014 13:40 25,7 C 49 % 1021,1 hPa 0,0 l/m 2,1 km/h (1 Bft) O-SO 112 14,2 C 28,6 C 0,0 km/h (0 Bft)
09.09.2014 13:50 26,1 C 46 % 1021,1 hPa 0,0 l/m 3,1 km/h (1 Bft) W 270 13,6 C 29,4 C 3,5 km/h (1 Bft)
09.09.2014 14:00 25,8 C 46 % 1020,8 hPa 0,0 l/m 3,1 km/h (1 Bft) NW 315 13,3 C 29,3 C 1,9 km/h (1 Bft)
09.09.2014 14:10 23,8 C 53 % 1020,8 hPa 0,0 l/m 3,5 km/h (1 Bft) SW 225 13,6 C 27,9 C 4,0 km/h (1 Bft)
09.09.2014 14:20 24,9 C 49 % 1020,8 hPa 0,0 l/m 3,4 km/h (1 Bft) NW 315 13,4 C 27,6 C 10,5 km/h (2 Bft)
09.09.2014 14:30 24,3 C 49 % 1020,8 hPa 0,0 l/m 3,9 km/h (1 Bft) W-SW 247 12,9 C 27,9 C 5,5 km/h (1 Bft)
09.09.2014 14:40 24,2 C 50 % 1020,8 hPa 0,0 l/m 3,4 km/h (1 Bft) NW 315 13,1 C 26,4 C 3,5 km/h (1 Bft)
09.09.2014 14:50 25,8 C 47 % 1020,8 hPa 0,0 l/m 4,5 km/h (1 Bft) W-NW 292 13,6 C 27,9 C 4,2 km/h (1 Bft)
09.09.2014 15:00 26,7 C 45 % 1020,7 hPa 0,0 l/m 5,6 km/h (1 Bft) NW 315 13,8 C 28,7 C 11,6 km/h (2 Bft)
09.09.2014 15:09 22,6 C 54 % 1020,7 hPa 0,0 l/m 7,9 km/h (2 Bft) W 270 12,8 C 26,1 C 15,4 km/h (3 Bft)
09.09.2014 15:20 21,8 C 57 % 1021,1 hPa 0,0 l/m 6,0 km/h (2 Bft) NO 45 12,9 C 23,1 C 21,6 km/h (4 Bft)
09.09.2014 15:30 21,7 C 59 % 1021,1 hPa 0,0 l/m 4,8 km/h (1 Bft) NW 315 13,3 C 22,4 C 8,5 km/h (2 Bft)
09.09.2014 15:40 21,4 C 60 % 1020,9 hPa 0,0 l/m 6,0 km/h (2 Bft) N-NW 337 13,3 C 21,9 C 6,8 km/h (2 Bft)
09.09.2014 15:50 20,8 C 62 % 1020,9 hPa 0,0 l/m 5,1 km/h (1 Bft) W-NW 292 13,2 C 21,2 C 5,1 km/h (1 Bft)
09.09.2014 16:00 21,8 C 56 % 1020,9 hPa 0,0 l/m 4,2 km/h (1 Bft) W-NW 292 12,6 C 22,9 C 4,5 km/h (1 Bft)
09.09.2014 16:10 22,6 C 53 % 1020,9 hPa 0,0 l/m 3,5 km/h (1 Bft) N-NW 337 12,5 C 24,9 C 3,4 km/h (1 Bft)
09.09.2014 16:20 23,1 C 52 % 1020,8 hPa 0,0 l/m 3,1 km/h (1 Bft) W 270 12,7 C 26,6 C 3,1 km/h (1 Bft)
09.09.2014 16:30 23,6 C 52 % 1020,8 hPa 0,0 l/m 3,9 km/h (1 Bft) N-NW 337 13,2 C 27,1 C 4,7 km/h (1 Bft)
09.09.2014 16:40 22,4 C 56 % 1020,6 hPa 0,0 l/m 4,5 km/h (1 Bft) N-NO 22 13,2 C 26,4 C 7,6 km/h (2 Bft)
09.09.2014 16:50 20,5 C 61 % 1020,6 hPa 0,0 l/m 5,1 km/h (1 Bft) O-SO 112 12,7 C 23,8 C 5,8 km/h (2 Bft)
09.09.2014 17:00 19,2 C 68 % 1021,1 hPa 0,0 l/m 4,7 km/h (1 Bft) O-SO 112 13,1 C 20,9 C 6,3 km/h (2 Bft)
09.09.2014 17:10 18,8 C 69 % 1021,1 hPa 0,0 l/m 1,4 km/h (1 Bft) NO 45 13,0 C 19,7 C 0,0 km/h (0 Bft)
09.09.2014 17:20 18,0 C 73 % 1020,7 hPa 0,0 l/m 0,2 km/h (0 Bft) S-SO 157 13,1 C 17,9 C 0,0 km/h (0 Bft)
09.09.2014 17:30 17,4 C 76 % 1020,7 hPa 0,0 l/m 0,0 km/h (0 Bft) S-SO 157 13,1 C 17,8 C 0,0 km/h (0 Bft)
09.09.2014 17:40 17,0 C 79 % 1020,4 hPa 0,0 l/m 0,3 km/h (0 Bft) S-SW 202 13,3 C 17,1 C 0,0 km/h (0 Bft)
09.09.2014 17:50 16,6 C 81 % 1020,4 hPa 0,0 l/m 0,3 km/h (0 Bft) W 270 13,3 C 16,4 C 0,0 km/h (0 Bft)
09.09.2014 18:00 16,3 C 82 % 1020,6 hPa 0,0 l/m 0,0 km/h (0 Bft) S-SO 157 13,2 C 16,1 C 0,0 km/h (0 Bft)
09.09.2014 18:09 16,0 C 83 % 1020,6 hPa 0,0 l/m 0,0 km/h (0 Bft) S 180 13,1 C 15,9 C 1,6 km/h (1 Bft)
09.09.2014 18:20 15,9 C 87 % 1020,7 hPa 0,0 l/m 0,6 km/h (0 Bft) S-SO 157 13,7 C 15,7 C 1,9 km/h (1 Bft)
09.09.2014 18:30 15,6 C 89 % 1020,7 hPa 0,0 l/m 0,5 km/h (0 Bft) SO 135 13,8 C 15,5 C 2,6 km/h (1 Bft)
09.09.2014 18:40 15,6 C 91 % 1020,4 hPa 0,0 l/m 0,6 km/h (0 Bft) S-SO 157 14,1 C 15,4 C 0,0 km/h (0 Bft)
09.09.2014 18:50 15,5 C 92 % 1020,4 hPa 0,0 l/m 0,3 km/h (0 Bft) NW 315 14,2 C 15,4 C 2,9 km/h (1 Bft)
09.09.2014 19:00 15,6 C 92 % 1020,4 hPa 0,0 l/m 1,8 km/h (1 Bft) W 270 14,3 C 15,3 C 2,1 km/h (1 Bft)
09.09.2014 19:10 15,7 C 92 % 1020,4 hPa 0,0 l/m 2,3 km/h (1 Bft) W 270 14,4 C 16,2 C 2,9 km/h (1 Bft)
09.09.2014 19:20 15,5 C 92 % 1020,4 hPa 0,0 l/m 2,3 km/h (1 Bft) S 180 14,2 C 15,9 C 0,0 km/h (0 Bft)
09.09.2014 19:30 15,2 C 93 % 1020,4 hPa 0,0 l/m 0,0 km/h (0 Bft) S 180 14,1 C 15,3 C 0,0 km/h (0 Bft)
09.09.2014 19:40 15,1 C 93 % 1020,3 hPa 0,0 l/m 0,6 km/h (0 Bft) S-SO 157 14,0 C 15,0 C 4,3 km/h (1 Bft)
09.09.2014 19:50 14,8 C 93 % 1020,3 hPa 0,0 l/m 1,4 km/h (1 Bft) S-SO 157 13,7 C 14,7 C 2,9 km/h (1 Bft)
09.09.2014 20:00 14,7 C 93 % 1020,5 hPa 0,0 l/m 2,7 km/h (1 Bft) S 180 13,6 C 14,5 C 1,8 km/h (1 Bft)
09.09.2014 20:10 14,8 C 93 % 1020,5 hPa 0,0 l/m 1,1 km/h (1 Bft) S 180 13,7 C 14,4 C 1,6 km/h (1 Bft)
09.09.2014 20:20 14,7 C 93 % 1020,8 hPa 0,0 l/m 1,1 km/h (1 Bft) O-SO 112 13,6 C 14,4 C 0,0 km/h (0 Bft)
09.09.2014 20:30 14,7 C 93 % 1020,8 hPa 0,0 l/m 1,0 km/h (0 Bft) S-SO 157 13,6 C 14,4 C 3,2 km/h (1 Bft)
09.09.2014 20:40 14,6 C 93 % 1020,8 hPa 0,0 l/m 1,0 km/h (0 Bft) S-SO 157 13,5 C 14,4 C 0,0 km/h (0 Bft)
09.09.2014 20:50 14,6 C 93 % 1020,8 hPa 0,0 l/m 0,8 km/h (0 Bft) S-SW 202 13,5 C 14,4 C 3,4 km/h (1 Bft)
09.09.2014 21:00 14,5 C 93 % 1020,8 hPa 0,0 l/m 0,6 km/h (0 Bft) O 90 13,4 C 14,4 C 1,9 km/h (1 Bft)
09.09.2014 21:09 14,4 C 93 % 1020,8 hPa 0,0 l/m 0,3 km/h (0 Bft) W-SW 247 13,3 C 14,3 C 0,0 km/h (0 Bft)
09.09.2014 21:10 14,4 C 93 % 1020,8 hPa 0,0 l/m 0,3 km/h (0 Bft) W-SW 247 13,3 C 14,3 C 0,0 km/h (0 Bft)
09.09.2014 21:20 14,2 C 94 % 1020,8 hPa 0,0 l/m 0,3 km/h (0 Bft) S 180 13,2 C 14,1 C 1,9 km/h (1 Bft)
09.09.2014 21:30 13,9 C 94 % 1020,8 hPa 0,0 l/m 1,6 km/h (1 Bft) W 270 12,9 C 13,9 C 0,0 km/h (0 Bft)
09.09.2014 21:40 13,7 C 94 % 1020,7 hPa 0,0 l/m 0,2 km/h (0 Bft) N-NO 22 12,8 C 13,6 C 0,0 km/h (0 Bft)
09.09.2014 21:50 13,4 C 94 % 1020,7 hPa 0,0 l/m 0,5 km/h (0 Bft) S-SW 202 12,5 C 13,4 C 0,0 km/h (0 Bft)
09.09.2014 22:00 13,3 C 94 % 1020,5 hPa 0,0 l/m 0,0 km/h (0 Bft) S-SW 202 12,4 C 13,1 C 0,0 km/h (0 Bft)
09.09.2014 22:10 13,1 C 94 % 1020,5 hPa 0,0 l/m 0,2 km/h (0 Bft) S 180 12,2 C 13,0 C 0,0 km/h (0 Bft)
09.09.2014 22:20 13,0 C 94 % 1020,5 hPa 0,0 l/m 0,5 km/h (0 Bft) W 270 12,1 C 12,9 C 2,4 km/h (1 Bft)
09.09.2014 22:30 13,1 C 94 % 1020,5 hPa 0,0 l/m 1,3 km/h (1 Bft) NO 45 12,2 C 13,0 C 0,0 km/h (0 Bft)
09.09.2014 22:40 13,0 C 94 % 1020,4 hPa 0,0 l/m 0,0 km/h (0 Bft) O-SO 112 12,1 C 12,9 C 0,0 km/h (0 Bft)
09.09.2014 22:50 13,3 C 94 % 1020,4 hPa 0,0 l/m 0,2 km/h (0 Bft) S 180 12,4 C 13,0 C 0,0 km/h (0 Bft)
09.09.2014 23:00 13,3 C 94 % 1020,6 hPa 0,0 l/m 0,0 km/h (0 Bft) S 180 12,4 C 13,1 C 0,0 km/h (0 Bft)
09.09.2014 23:10 13,3 C 94 % 1020,6 hPa 0,0 l/m 0,0 km/h (0 Bft) S 180 12,4 C 13,0 C 0,0 km/h (0 Bft)
09.09.2014 23:20 13,4 C 94 % 1020,6 hPa 0,0 l/m 0,2 km/h (0 Bft) O-SO 112 12,5 C 13,2 C 0,0 km/h (0 Bft)
09.09.2014 23:30 13,5 C 94 % 1020,6 hPa 0,0 l/m 0,0 km/h (0 Bft) NW 315 12,6 C 13,3 C 0,0 km/h (0 Bft)
09.09.2014 23:40 13,5 C 94 % 1020,4 hPa 0,0 l/m 0,0 km/h (0 Bft) SW 225 12,6 C 13,3 C 0,0 km/h (0 Bft)
09.09.2014 23:50 13,6 C 94 % 1020,4 hPa 0,0 l/m 0,0 km/h (0 Bft) S-SO 157 12,7 C 13,4 C 0,0 km/h (0 Bft)
_ Min-Zeit 03:00 15:00 04:30 - 23:50 - - 03:00 02:55 23:50
Minimum _ 11,7 C 45 % 1019,7 hPa - 0,0 km/h (0 Bft) - - 9,9 C 11,7 C 0,0 km/h (0 Bft)
_ Max-Zeit 15:00 23:50 13:30 23:50 15:09 - - 12:25 13:50 15:20
Maximum _ 26,7 C 94 % 1021,4 hPa 0,0 l/m 7,9 km/h
W (2 Bft)
- - 19,9 C 29,4 C 21,6 km/h
NO (4 Bft)
Durchschnitt _ 16,3 C 83 % 1020,6 hPa #0,0 l/m 1,2 km/h (1 Bft) W - 13,1 C 17,0 C 1,8 km/h (1 Bft)